[[{"header":{"parameterUnit":"m.s-1","parameterCategory":1,"la1":30.2991,"la2":30.254,"lo1":-89.0895,"lo2":-89.0444,"dy":0.0017,"dx":0.0017,"nx":28,"ny":28,"refTime":"2026-02-14T09:00:00:Z","depth":0,"parameterNumber":2,"parameterNumberName":"U-component_of_WINDS"},"data":[0,0,0,0,0,0,0,0,0,0,0,0,0,0,0,0,0,0,0,0,0,0,0,0,0,0,0,0,0,0,0,0,0,0,0,0,0,0,0,0,0,0,0,0,0,0,0,0,0,0,0,0,0,0,0,0,0,0,1.1198,1.1197,0,1.1115,1.1114,1.1113,1.1007,1.1005,1.1004,1.1002,1.0914,1.0914,1.0913,0,0,0,0,0,0,0,0,0,0,0,0,0,1.1263,1.1262,1.1198,1.1197,1.1196,1.1115,1.1114,1.1112,1.1007,1.1005,1.1003,1.1001,1.0915,1.0914,1.0913,0,0,0,0,0,0,0,0,0,0,0,0,0,1.1213,1.1262,1.1198,1.1134,1.1127,1.1115,1.1113,1.1112,1.1008,1.1005,1.1003,1.1,1.0915,1.0914,1.0913,1.0957,0,0,1.0909,1.0909,0,0,0,0,0,0,0,0,1.1216,1.121,1.1144,1.1138,1.1131,1.1069,1.1104,1.106,1.1008,1.1053,1.1002,1.0999,1.0968,1.0962,1.0952,1.0952,1.0949,1.0909,1.0908,1.0908,1.0908,0,0,0,0,0,0,0,1.1219,1.1213,1.1165,1.1143,1.1135,1.1108,1.1098,1.1095,1.1025,1.1049,1.1041,1.1033,1.0963,1.0953,1.0949,1.0947,1.0909,1.0908,1.0907,1.0907,1.0979,1.0981,0,0,0,0,0,0,1.1233,1.1217,1.1167,1.1162,1.1168,1.1109,1.1098,1.1091,1.1025,1.1013,1.1035,1.1028,1.0956,1.095,1.0946,1.0992,1.0908,1.0907,1.0906,1.0976,1.0979,1.0982,0,0,0,0,0,0,1.1235,1.1229,1.1171,1.1187,1.1178,1.111,1.1104,1.1091,1.108,1.1015,1.1001,1.1038,1.0954,1.0947,1.0955,1.0988,1.0906,1.0905,1.0973,1.0977,1.0981,1.1087,0,0,0,0,0,0,1.1237,1.1231,1.1247,1.1189,1.1177,1.1183,1.1106,1.1091,1.1079,1.1069,1.1014,1.1002,1.0952,1.0957,1.0954,1.0985,1.0905,1.097,1.0975,1.0979,1.108,1.1094,1.1106,0,0,0,0,0,1.124,1.128,1.1249,1.1243,1.1197,1.1185,1.1178,1.112,1.1082,1.1098,1.1056,1.1004,1.0985,1.0959,1.0954,1.0986,1.0967,1.0973,1.0979,1.1075,1.1092,1.1106,0,0,0,0,0,0,1.1344,1.1271,1.1236,1.1259,1.1229,1.1167,1.1185,1.114,1.1119,1.1111,1.1039,1.1027,1.1043,1.1014,1.0987,1.1024,1.0968,1.0973,1.1043,1.1058,1.1071,1.1078,1.0904,0,0,0,0,0,1.137,1.1367,1.1303,1.133,1.1316,1.1254,1.1246,1.1204,1.117,1.1156,1.1114,1.1082,1.1068,1.1061,1.1045,1.1075,1.1061,1.1094,1.1107,1.1118,1.1124,1.1137,1.1151,1.1001,1.1001,1.1001,0,0,1.1424,1.1383,1.1386,1.135,1.1321,1.1319,1.1244,1.1244,1.1242,1.1156,1.1161,1.1129,1.1088,1.1107,1.1113,1.1084,1.1162,1.1125,1.1135,1.1134,1.1144,1.1158,1.1171,1.1005,1.1004,1.1004,0,0,1.152,1.1489,1.1508,1.1481,1.1439,1.1397,1.1402,1.1347,1.1322,1.1326,1.1262,1.1256,1.1235,1.1209,1.1192,1.1277,1.1229,1.1274,1.1342,1.1355,1.1367,1.1377,1.1408,1.142,1.1279,1.128,1.128,0,1.1591,1.1586,1.1523,1.1528,1.1514,1.1436,1.1454,1.1431,1.1386,1.1378,1.1345,1.1316,1.1283,1.1295,1.1316,1.1305,1.1307,1.1281,1.1371,1.138,1.1388,1.1417,1.1429,1.1286,1.1285,1.1284,1.1284,0,1.1676,1.1673,1.1693,1.1653,1.164,1.1652,1.159,1.1585,1.1543,1.1504,1.1509,1.1466,1.144,1.1439,1.1398,1.1445,1.1428,1.1384,1.1327,1.141,1.1435,1.1446,1.1294,1.1292,1.129,1.1289,0,0,1.1837,1.1761,1.177,1.1751,1.1698,1.1695,1.1702,1.1677,1.1674,1.1645,1.1649,1.1632,1.1591,1.1573,1.1528,1.154,1.161,1.1494,1.1492,1.1518,1.1659,1.1693,1.1707,1.1577,1.1579,1.158,1.1662,0,1.1924,1.1934,1.1877,1.1902,1.1898,1.1824,1.183,1.1798,1.1762,1.1752,1.1711,1.17,1.1647,1.1635,1.1643,1.16,1.1638,1.1593,1.158,1.158,1.1594,1.172,1.1756,1.1836,1.1672,1.1673,1.1675,0,1.2028,1.2006,1.203,1.1977,1.1973,1.198,1.1952,1.1944,1.1906,1.1878,1.1858,1.1806,1.1808,1.1753,1.1755,1.1726,1.1716,1.1694,1.1696,1.1693,1.1634,1.1722,1.186,1.1873,1.169,1.1688,1.1687,0,1.2144,1.212,1.2131,1.2117,1.2054,1.2061,1.2035,1.1994,1.1983,1.1958,1.195,1.1925,1.1912,1.1894,1.1836,1.1802,1.1845,1.1785,1.1821,1.1823,1.1835,1.1835,1.1975,1.1828,1.1827,1.1827,1.1827,0,1.2248,1.2266,1.2183,1.219,1.2208,1.2141,1.216,1.2126,1.2091,1.209,1.2022,1.2022,1.1946,1.1937,1.1892,1.19,1.1894,1.1871,1.1859,1.1878,1.1881,1.1872,1.1865,1.183,1.183,1.1829,1.1828,0,1.2381,1.2326,1.2334,1.2274,1.2259,1.2275,1.2223,1.2227,1.2186,1.2185,1.2181,1.2116,1.2101,1.2042,1.2013,1.1982,1.2006,1.1981,1.202,1.2012,1.2052,1.205,1.2192,1.2207,1.205,1.2051,1.2053,0,1.2452,1.2464,1.2406,1.2401,1.2378,1.237,1.2358,1.2293,1.2283,1.224,1.2249,1.2229,1.2211,1.2191,1.214,1.2118,1.2093,1.2144,1.2089,1.2107,1.2094,1.2095,1.2096,1.2156,1.2159,1.216,1.2162,0,1.2583,1.2555,1.2541,1.2518,1.2506,1.2484,1.2458,1.2457,1.2384,1.2376,1.2362,1.2347,1.2318,1.2299,1.2268,1.2239,1.2189,1.2179,1.2186,1.2206,1.2228,1.2218,1.2053,1.2176,1.2175,1.2174,1.2173,1.2172,1.2687,1.2695,1.2655,1.2642,1.2616,1.2593,1.2593,1.2552,1.2539,1.2512,1.2473,1.2463,1.2423,1.2376,1.2351,1.2342,1.2313,1.2324,1.2327,1.2331,1.234,1.2229,1.2336,1.2335,1.2335,1.2334,1.2334,0,1.2816,1.2787,1.2775,1.2741,1.2731,1.2684,1.2652,1.2646,1.2639,1.2607,1.259,1.2572,1.2554,1.2502,1.2477,1.248,1.2456,1.2476,1.2475,1.247,1.2367,1.2363,1.2496,1.2496,1.2495,1.2495,1.2495,1.2495,1.2882,1.2892,1.2859,1.2856,1.2825,1.2817,1.2803,1.2781,1.2755,1.2739,1.2724,1.269,1.2649,1.2621,1.2602,1.2586,1.2581,1.2609,1.2587,1.2492,1.2477,1.2462,1.2458,1.2608,1.2608,1.269,1.2691,1.2691]},{"header":{"parameterUnit":"m.s-1","parameterCategory":1,"la1":30.2991,"la2":30.254,"lo1":-89.0895,"lo2":-89.0444,"dy":0.0017,"dx":0.0017,"nx":28,"ny":28,"refTime":"2026-02-14T09:00:00:Z","depth":0,"parameterNumber":3,"parameterNumberName":"V-component_of_WINDS"},"data":[0,0,0,0,0,0,0,0,0,0,0,0,0,0,0,0,0,0,0,0,0,0,0,0,0,0,0,0,0,0,0,0,0,0,0,0,0,0,0,0,0,0,0,0,0,0,0,0,0,0,0,0,0,0,0,0,0,0,6.4914,6.4915,0,6.5013,6.5014,6.5015,6.4987,6.4985,6.4983,6.4981,6.5079,6.5083,6.5088,0,0,0,0,0,0,0,0,0,0,0,0,0,6.47,6.4704,6.4914,6.4916,6.4917,6.5012,6.5014,6.5015,6.4987,6.4985,6.4982,6.498,6.5077,6.5083,6.5088,0,0,0,0,0,0,0,0,0,0,0,0,0,6.4795,6.4705,6.4914,6.4914,6.4915,6.5012,6.5014,6.5015,6.4988,6.4985,6.4982,6.4979,6.5076,6.5082,6.5089,6.519,0,0,6.5109,6.5112,0,0,0,0,0,0,0,0,6.4789,6.4803,6.4913,6.4915,6.4916,6.4984,6.4974,6.5074,6.4989,6.496,6.4981,6.4977,6.505,6.5058,6.5083,6.5195,6.5199,6.511,6.5114,6.5117,6.5119,0,0,0,0,0,0,0,6.4783,6.4798,6.4953,6.4915,6.4917,6.4909,6.4919,6.4993,6.502,6.4962,6.4961,6.4973,6.505,6.5077,6.5085,6.52,6.511,6.5116,6.512,6.5122,6.54,6.5403,0,0,0,0,0,0,6.4776,6.4793,6.495,6.4956,6.4844,6.4915,6.4926,6.4965,6.502,6.5025,6.4975,6.4971,6.5067,6.5077,6.5089,6.5212,6.5117,6.5123,6.5127,6.5396,6.54,6.5404,0,0,0,0,0,0,6.4771,6.479,6.4946,6.4874,6.4893,6.4922,6.4966,6.4969,6.4996,6.5029,6.5034,6.4998,6.5065,6.5079,6.5165,6.5214,6.5126,6.5132,6.5392,6.5397,6.5402,6.5458,0,0,0,0,0,0,6.4765,6.4789,6.4828,6.4875,6.4897,6.5022,6.4969,6.4973,6.5008,6.5004,6.5052,6.5057,6.5064,6.5155,6.5172,6.5222,6.5137,6.5388,6.5395,6.54,6.5452,6.5464,6.5475,0,0,0,0,0,6.4758,6.4839,6.483,6.4849,6.4948,6.5025,6.5038,6.5045,6.5012,6.5052,6.5073,6.5055,6.5206,6.5164,6.5183,6.5236,6.5385,6.5393,6.54,6.5447,6.5462,6.5474,0,0,0,0,0,0,6.4797,6.4846,6.4836,6.4936,6.4977,6.502,6.5071,6.506,6.511,6.5104,6.5109,6.512,6.5209,6.523,6.5183,6.5336,6.5291,6.5302,6.532,6.5334,6.5346,6.5339,6.5143,0,0,0,0,0,6.4817,6.4877,6.4916,6.5,6.5021,6.5042,6.5076,6.5078,6.512,6.5137,6.5164,6.5205,6.5262,6.5299,6.5352,6.5454,6.5464,6.5499,6.5511,6.552,6.553,6.5586,6.5602,6.5429,6.5429,6.5428,0,0,6.4859,6.4893,6.4931,6.5008,6.504,6.5101,6.5057,6.5123,6.5169,6.5147,6.523,6.5252,6.5297,6.5392,6.5435,6.5413,6.558,6.5529,6.5537,6.5542,6.5595,6.5612,6.5626,6.5434,6.5433,6.5432,0,0,6.4968,6.5,6.5074,6.5107,6.5156,6.5169,6.5187,6.5232,6.5246,6.533,6.5315,6.5368,6.5465,6.5498,6.5528,6.5648,6.5634,6.5665,6.5726,6.578,6.5794,6.5806,6.585,6.5865,6.5675,6.5675,6.5676,0,6.5015,6.5107,6.5113,6.5181,6.5215,6.5199,6.5273,6.5304,6.5368,6.5392,6.5366,6.5488,6.5517,6.5619,6.5649,6.5673,6.5693,6.5661,6.5791,6.5804,6.5815,6.5857,6.5873,6.5679,6.5679,6.5678,6.5678,0,6.5162,6.5226,6.528,6.5343,6.5383,6.5454,6.547,6.5509,6.5507,6.5523,6.5608,6.5643,6.5704,6.5727,6.5725,6.5829,6.5814,6.579,6.5744,6.5835,6.5875,6.5891,6.5684,6.5683,6.5682,6.5681,0,0,6.53,6.5365,6.5385,6.5414,6.5466,6.5515,6.5584,6.5645,6.5679,6.5723,6.5781,6.5863,6.5841,6.5875,6.5876,6.5923,6.6017,6.5893,6.5894,6.5916,6.6134,6.6154,6.6172,6.6007,6.601,6.6013,6.6131,0,6.5415,6.5539,6.5545,6.5658,6.5717,6.5701,6.5762,6.58,6.5816,6.5868,6.5885,6.5944,6.591,6.593,6.5976,6.5996,6.6061,6.5987,6.6062,6.6064,6.6053,6.6193,6.6213,6.6323,6.6146,6.6149,6.6151,0,6.5566,6.5616,6.5734,6.5778,6.5803,6.5858,6.5913,6.5963,6.6005,6.6014,6.6051,6.6045,6.6115,6.6066,6.6163,6.6112,6.6142,6.6157,6.6161,6.617,6.6115,6.6206,6.6359,6.6376,6.6175,6.6173,6.6171,0,6.5656,6.5752,6.5836,6.5861,6.5914,6.5952,6.5976,6.6015,6.6051,6.6099,6.6122,6.6177,6.6207,6.6249,6.6258,6.6221,6.6355,6.6306,6.6364,6.6364,6.6394,6.6393,6.6555,6.6411,6.6411,6.6411,6.641,0,6.5785,6.5858,6.5878,6.5929,6.6011,6.6016,6.6096,6.6117,6.6152,6.6207,6.6195,6.6246,6.6254,6.6307,6.6314,6.6393,6.6406,6.6415,6.6416,6.6417,6.6416,6.6438,6.6431,6.6415,6.6414,6.6413,6.6412,0,6.59,6.5916,6.6007,6.6049,6.6062,6.612,6.6156,6.6205,6.6219,6.6288,6.6305,6.6327,6.6389,6.6401,6.6473,6.6478,6.6573,6.6565,6.6559,6.6559,6.6617,6.6612,6.68,6.6826,6.6664,6.6665,6.6667,0,6.5982,6.6039,6.6088,6.6124,6.615,6.6208,6.6245,6.6251,6.629,6.6342,6.6384,6.6445,6.6494,6.6592,6.6614,6.6669,6.6664,6.6726,6.6672,6.6671,6.6667,6.6664,6.667,6.6737,6.6739,6.674,6.6741,0,6.6126,6.6131,6.6185,6.6242,6.6286,6.6331,6.6373,6.6403,6.6415,6.6458,6.6522,6.656,6.6633,6.6694,6.6748,6.6771,6.6759,6.6758,6.6775,6.6777,6.6772,6.6777,6.6589,6.6754,6.6753,6.6752,6.6751,6.6751,6.6229,6.6279,6.6321,6.6381,6.6413,6.6453,6.6501,6.6522,6.6575,6.6637,6.6637,6.6706,6.6746,6.6818,6.6844,6.6898,6.6878,6.6902,6.6908,6.6914,6.6921,6.6762,6.6907,6.6907,6.6907,6.6907,6.6906,0,6.6374,6.64,6.6455,6.6515,6.6562,6.6546,6.6592,6.6632,6.6694,6.6732,6.678,6.6853,6.6911,6.6937,6.6994,6.7031,6.7027,6.7046,6.7044,6.705,6.6934,6.6915,6.7049,6.7049,6.7049,6.7049,6.7049,6.7048,6.6455,6.6538,6.6548,6.6647,6.6672,6.6741,6.6768,6.6804,6.6835,6.6917,6.6965,6.6982,6.7016,6.7074,6.7126,6.7132,6.7154,6.7177,6.718,6.7072,6.7058,6.7044,6.7026,6.7181,6.7181,6.7291,6.7292,6.7293]}]]